Terminal Aerodrome Forecast
Issued by NWS

Home | Current Version | Previous Version | Text Only | Print | Product List | Glossary On
Versions: 1 2 3 4 5 6 7 8 9 10 11 12 13 14 15 16 17 18 19 20 21 22 23 24 25 26 27 28 29 30 31 32 33 34 35 36
000
FTAK31 PAFA 211159
TAFAQT
TAF
PAQT 211159Z 2112/2212 VRB03KT P6SM -FZDZ OVC020
     FM211600 09008KT P6SM -SN OVC020=

USA.gov is the U.S. government's official web portal to all federal, state and local government web resources and services.